DateTimeUTC,F1_A11,F1_S11,BsB_S11,BsG_S11,BsR_S11,BbsB_S11,BbsG_S11,BbsR_S11,BaB_A11,BaG_A11,BaR_A11,Tu_S11,T_S11,Uu_S11,U_S11,P_S11,T1_A11
2021-06-29T01:00:00Z,00000200,20000000,,,,,,,-000.15,0000.02,0000.04,19.0,25.7,10.1,06.7,0664.7,31.2
2021-06-29T01:01:00Z,00000200,20000000,,,,,,,0000.07,-000.15,0000.32,18.9,25.7,10.1,06.7,0664.7,31.2
2021-06-29T01:02:00Z,00000200,20000000,,,,,,,0000.15,-000.08,0000.03,18.9,25.7,10.0,06.6,0664.7,31.2
2021-06-29T01:03:00Z,00000200,60000000,,,,,,,-000.14,0000.28,-000.14,18.9,25.7,09.8,06.5,0664.7,31.2
2021-06-29T01:04:00Z,00000200,40000000,-000.34,0000.14,-000.15,0000.47,-000.07,0000.28,-000.12,-000.04,0000.08,19.1,25.5,09.8,06.6,0665.6,31.2
2021-06-29T01:05:00Z,00000200,00000000,0000.23,-000.19,0000.31,0000.67,-000.16,0000.28,0000.06,-000.04,-000.17,19.2,25.5,09.8,06.7,0665.7,31.2
2021-06-29T01:06:00Z,00000200,00000000,-000.33,0000.41,0000.01,0000.42,-000.23,0000.34,-000.01,-000.23,0000.14,19.2,25.5,09.6,06.5,0665.7,31.2
2021-06-29T01:07:00Z,00000200,00000000,0000.33,0000.11,-000.21,-000.26,0000.13,-000.15,-000.30,-000.19,-000.30,19.2,25.5,09.5,06.5,0665.7,31.2
2021-06-29T01:08:00Z,00000200,00000000,0000.48,0000.06,0000.14,-000.10,-000.35,0000.34,-000.01,-000.03,-000.05,19.2,25.5,09.5,06.5,0665.7,31.2
2021-06-29T01:09:00Z,00000200,00000000,0000.92,0000.17,0000.22,0000.10,0000.06,0000.24,-000.03,0000.33,0000.25,19.2,25.5,09.4,06.4,0665.7,31.2
2021-06-29T01:10:00Z,00000200,00000000,-000.18,0000.05,-000.06,0000.02,0000.02,-000.10,0000.02,-000.39,-000.42,19.2,25.5,09.4,06.4,0665.7,31.2
2021-06-29T01:11:00Z,00000200,00000000,-000.32,0000.18,0000.20,-000.28,0000.02,-000.04,-000.33,-000.08,0000.12,19.1,25.4,09.4,06.4,0665.7,31.2
2021-06-29T01:12:00Z,00000200,00000000,0000.19,0000.00,-000.21,0000.20,0000.08,0000.20,0000.05,0000.05,-000.20,19.1,25.4,09.2,06.3,0665.7,31.2
2021-06-29T01:13:00Z,00000200,00000000,0000.10,-000.33,0000.00,0000.55,0000.10,-000.09,0000.29,0000.16,0000.16,19.1,25.4,09.2,06.3,0665.7,31.2
2021-06-29T01:14:00Z,00000200,00000000,-000.27,-000.16,0000.08,-000.03,-000.22,-000.01,-000.13,-000.29,0000.19,19.1,25.4,09.2,06.2,0665.7,31.2
2021-06-29T01:15:00Z,00000200,00000000,0000.25,0000.22,0000.20,-000.40,-000.14,0000.09,-000.00,0000.01,-000.35,19.1,25.4,09.1,06.2,0665.7,31.1
2021-06-29T01:16:00Z,00000200,00000000,0000.64,0000.08,0000.08,-000.17,-000.07,0000.28,0000.01,0000.01,0000.19,19.1,25.4,09.1,06.2,0665.7,31.2
2021-06-29T01:17:00Z,00000200,00000000,0000.47,-000.03,0000.09,-000.13,-000.11,0000.25,-000.11,0000.12,0000.04,19.1,25.4,09.1,06.2,0665.7,31.1
2021-06-29T01:18:00Z,00000200,00000000,0001.05,0000.10,0000.16,0000.66,-000.06,0000.31,0000.10,-000.15,-000.00,19.1,25.4,08.9,06.1,0665.7,31.2
2021-06-29T01:19:00Z,00000200,00000000,0000.32,0000.22,-000.18,0000.16,0000.09,0000.37,-000.12,0000.03,0000.02,19.2,25.4,08.8,06.0,0665.7,31.2
2021-06-29T01:20:00Z,00000200,00000000,0000.08,-000.27,0000.08,-000.05,0000.32,0000.29,0000.04,-000.20,-000.13,19.3,25.5,08.7,05.9,0665.7,31.2
2021-06-29T01:21:00Z,00000200,00000000,0000.19,-000.03,-000.06,0000.18,0000.29,0000.18,-000.11,-000.11,-000.11,19.3,25.5,08.7,05.9,0665.7,31.2
2021-06-29T01:22:00Z,00000200,00000000,0000.53,0000.09,-000.16,0000.02,-000.15,0000.10,-000.69,-000.13,-000.15,19.3,25.5,08.5,05.8,0665.8,31.2
2021-06-29T01:23:00Z,00000200,00000000,0000.35,-000.10,-000.01,-000.23,0000.07,0000.07,0000.30,0000.06,-000.06,19.3,25.5,08.6,05.8,0665.8,31.2
2021-06-29T01:24:00Z,00000200,00000000,0000.33,0000.17,0000.29,0000.56,0000.20,0000.19,0000.09,0000.31,0000.05,19.3,25.5,08.5,05.8,0665.8,31.2
2021-06-29T01:25:00Z,00000200,00000000,0000.47,0000.10,-000.05,0000.15,0000.19,0000.19,0000.05,-000.40,-000.26,19.2,25.5,08.5,05.8,0665.8,31.2
2021-06-29T01:26:00Z,00000200,00000000,-000.24,0000.13,-000.08,0000.48,0000.06,0000.21,-000.40,-000.08,0000.15,19.2,25.5,08.5,05.8,0665.8,31.2
2021-06-29T01:27:00Z,00000200,00000000,0000.03,-000.10,-000.13,-000.00,-000.36,0000.17,0000.09,0000.25,0000.40,19.2,25.5,08.5,05.8,0665.8,31.2
2021-06-29T01:28:00Z,00000200,00000000,-000.30,-000.07,0000.00,0000.37,-000.01,0000.37,-000.20,-000.33,-000.48,19.2,25.4,08.5,05.8,0665.8,31.2
2021-06-29T01:29:00Z,00000200,00000000,0000.62,0000.14,-000.06,0000.11,0000.09,0000.26,0000.28,0000.20,0000.07,19.1,25.4,08.4,05.8,0665.7,31.2
2021-06-29T01:30:00Z,00000200,00000000,0000.19,0000.09,-000.26,0000.31,-000.33,0000.22,-000.29,-000.23,-000.05,19.1,25.4,08.6,05.9,0665.7,31.2
2021-06-29T01:31:00Z,00000200,00000000,0000.18,-000.02,0000.11,0000.35,-000.19,0000.19,0000.73,0000.39,0000.37,19.1,25.4,08.5,05.8,0665.7,31.2
2021-06-29T01:32:00Z,00000200,00000000,-000.41,-000.10,0000.11,0000.22,-000.04,0000.26,-000.42,-000.13,-000.21,19.1,25.4,08.5,05.8,0665.8,31.2
2021-06-29T01:33:00Z,00000200,00000000,-000.32,0000.18,0000.32,0000.29,-000.05,0000.26,0000.33,0000.02,0000.49,19.2,25.4,08.5,05.8,0665.8,31.2
2021-06-29T01:34:00Z,00000200,00000000,0000.04,-000.04,0000.04,0000.09,-000.03,-000.08,-000.15,-000.13,-000.36,19.2,25.5,08.4,05.7,0665.8,31.2
2021-06-29T01:35:00Z,00000200,00000000,0000.08,0000.13,-000.01,0000.07,0000.22,0000.19,-000.30,0000.12,-000.14,19.3,25.5,08.3,05.7,0665.8,31.2
2021-06-29T01:36:00Z,00000200,00000000,0000.01,0000.16,-000.13,-000.12,0000.01,0000.07,0000.13,-000.05,-000.06,19.3,25.5,08.2,05.6,0665.8,31.2
2021-06-29T01:37:00Z,00000200,00000000,-000.28,0000.03,0000.03,-000.02,0000.01,0000.25,-000.21,-000.07,0000.08,19.3,25.5,08.3,05.7,0665.8,31.2
2021-06-29T01:38:00Z,00000200,00000000,-000.56,0000.17,0000.00,0000.35,0000.10,0000.14,-000.27,-000.41,-000.16,19.2,25.5,08.2,05.6,0665.8,31.2
2021-06-29T01:39:00Z,00000200,00000000,0000.25,0000.03,0000.18,0000.15,0000.02,0000.10,-000.05,0000.44,0000.30,19.2,25.5,08.2,05.6,0665.8,31.2
2021-06-29T01:40:00Z,00000200,00000000,-000.34,-000.07,-000.02,0000.14,0000.09,-000.04,0000.25,-000.22,-000.41,19.2,25.5,08.2,05.6,0665.8,31.2
2021-06-29T01:41:00Z,00000200,00000000,-000.29,-000.21,0000.43,0000.22,0000.32,0000.18,-000.01,-000.25,-000.04,19.2,25.5,08.2,05.6,0665.8,31.2
2021-06-29T01:42:00Z,00000200,00000000,0000.71,-000.16,-000.10,0000.52,-000.20,0000.23,0000.01,0000.23,0000.17,19.1,25.4,08.1,05.5,0665.8,31.2
2021-06-29T01:43:00Z,00000200,00000000,0000.48,-000.18,-000.08,0000.46,-000.15,0000.28,-000.42,0000.07,-000.10,19.1,25.4,08.1,05.5,0665.8,31.2
2021-06-29T01:44:00Z,00000200,00000000,0000.18,-000.06,0000.02,0000.33,0000.04,0000.19,0000.55,-000.21,-000.01,19.1,25.4,08.2,05.6,0665.8,31.2
2021-06-29T01:45:00Z,00000200,00000000,0000.14,-000.04,-000.15,0000.59,0000.04,0000.09,-000.52,-000.32,-000.33,19.1,25.4,08.0,05.5,0665.9,31.2
2021-06-29T01:46:00Z,00000200,00000000,-000.27,-000.13,-000.22,0000.34,0000.08,0000.22,0000.22,0000.56,0000.56,19.0,25.4,08.1,05.5,0665.9,31.2
2021-06-29T01:47:00Z,00000200,00000000,-000.11,0000.15,0000.05,-000.03,-000.13,0000.27,0000.37,-000.00,-000.03,19.1,25.4,08.1,05.5,0665.9,31.2
2021-06-29T01:48:00Z,00000200,00000000,0000.51,0000.31,-000.10,0000.36,-000.09,0000.36,-000.14,0000.35,-000.04,19.1,25.4,08.0,05.5,0665.9,31.2
2021-06-29T01:49:00Z,00000200,00000000,0000.23,-000.04,0000.17,0000.58,-000.17,0000.35,0000.16,-000.09,0000.27,19.2,25.4,08.0,05.5,0665.9,31.2
2021-06-29T01:50:00Z,00000200,00000000,0000.05,0000.05,-000.08,0000.24,0000.11,0000.31,-000.01,0000.03,-000.29,19.3,25.5,08.0,05.5,0665.9,31.2
2021-06-29T01:51:00Z,00000200,00000000,-000.02,-000.00,0000.05,-000.24,-000.06,-000.06,0000.00,-000.32,0000.14,19.3,25.5,07.9,05.4,0665.9,31.2
2021-06-29T01:52:00Z,00000200,00000000,0000.23,0000.07,0000.18,0000.24,0000.15,0000.20,-000.18,0000.28,-000.27,19.3,25.5,08.0,05.5,0665.9,31.2
2021-06-29T01:53:00Z,00000200,00000000,0000.56,0000.25,0000.24,-000.27,-000.10,0000.17,-000.03,-000.21,-000.10,19.3,25.5,08.0,05.5,0665.9,31.2
2021-06-29T01:54:00Z,00000200,00000000,0000.24,0000.07,0000.03,-000.07,0000.01,0000.22,-000.07,-000.02,0000.13,19.3,25.5,08.0,05.5,0665.9,31.2
2021-06-29T01:55:00Z,00000200,00000000,-000.05,-000.14,0000.26,0000.35,0000.12,0000.28,0000.03,-000.11,0000.08,19.2,25.5,08.0,05.5,0665.9,31.2
2021-06-29T01:56:00Z,00000200,00000000,-000.50,0000.14,0000.28,0000.07,-000.12,0000.03,-000.01,0000.25,-000.20,19.2,25.5,08.1,05.5,0665.9,31.2
2021-06-29T01:57:00Z,00000200,40000000,,,,,,,0000.62,0000.06,0000.48,19.2,25.5,08.1,05.5,0665.8,31.2
2021-06-29T01:58:00Z,00000200,60000000,,,,,,,-000.10,0000.13,-000.21,18.9,25.6,08.6,05.7,0664.9,31.2
2021-06-29T01:59:00Z,00000200,20000000,,,,,,,-000.47,-000.33,0000.01,18.9,25.7,08.4,05.5,0664.9,31.2
